sat.trackr.live / text

‹ back to catalog

STARLINK-36484

NORAD 67404 · 2026-005A

PAYLOAD ACTIVE UNKNOWN

§ Identity

Operator
Country
US
Launch date
2026-01-12
Launch site
AFETR
Launch vehicle
Mass (kg)
RCS (m²)

Purposes: comms

External: N2YO · Heavens-Above · Gunter

§ Orbital elements

Epoch: 2026-09-19T06:12:02.863008Z

Period
94.27 min
Inclination
42.9986°
Eccentricity
0.0001152
Mean motion
15.27585168 rev/d
Perigee alt
482.2 km
Apogee alt
483.8 km
Semi-major
6,861.2 km
B*
3.7177e-4
RAAN
224.5253°
Arg perigee
266.0735°
Mean anomaly
93.9985°
Rev number
3,830

§ Raw data

STARLINK-364841 67404U 26005A   26262.25836647  .00009984  00000+0  37177-3 0  99902 67404  42.9986 224.5253 0001152 266.0735  93.9985 15.27585168 38307

JSON: /api/v1/satellites/67404 · /tle

For live sub-satellite position, see the globe view (requires WebGL).

§ Visibility from observer

Set your observer location to see the next 7 days of passes ≥ 10°. The values pass through the URL so the page stays shareable.

No JS? Fill the form by hand. The geolocation button needs JavaScript.